Regional Weather Roundup
Issued by NWS Northern Indiana

Home | Current Version | Previous Version | Text Only | Print | Product List | Glossary On
Versions: 1 2 3 4 5 6 7 8 9 10 11 12 13 14 15 16 17 18 19 20 21 22 23 24 25 26 27 28 29 30 31 32 33 34 35 36 37 38 39 40 41 42 43 44 45 46 47 48 49 50
000
ASUS43 KIWX 261710
RWRIWX

KIWX WEATHER ROUNDUP
NATIONAL WEATHER SERVICE NORTHERN INDIANA
1200 PM EST FRI DEC 26 2014

NOTE: "FAIR" INDICATES FEW OR NO CLOUDS BELOW 12,000 FEET WITH NO
SIGNIFICANT WEATHER AND/OR OBSTRUCTIONS TO VISIBILITY.

* THESE STATIONS ARE NOT UNDER NWS QUALITY CONTROL. THEY ALSO MAY NOT
  REPORT WEATHER SUCH AS PRECIPITATION OR FOG.

INZ001>027-261800-
NORTHERN INDIANA

CITY           SKY/WX    TMP DP  RH WIND       PRES   REMARKS
GARY*          MOSUNNY   48  32  53 SW10G26   30.06F
VALPARAISO     SUNNY     45  37  73 SW16      30.07F
MICHIGAN CITY* SUNNY     46  32  57 SW13G20   30.06F
LAPORTE*       SUNNY     46  38  73 SW15      30.07F
KNOX*          SUNNY     44  34  65 SW12      30.08F
SOUTH BEND     SUNNY     46  36  68 SW14      30.08F
ELKHART*       SUNNY     45  32  61 SW9       30.08F
GOSHEN         SUNNY     45  36  70 SW15      30.08F
MONTICELLO*    SUNNY     46  38  76 SW17      30.09F
LOGANSPORT*    SUNNY     45  36  70 SW13      30.11F
ROCHESTER*     SUNNY     46  37  71 SW12      30.10F
WARSAW*        SUNNY     45  36  70 SW8       30.09F
ANGOLA*        SUNNY     45  36  70 SW8       30.09F
FORT WAYNE     PTSUNNY   44  37  76 SW14      30.12F
HUNTINGTON*    SUNNY     44  37  75 SW12      30.12F
MARION*        SUNNY     42  36  79 S15G21    30.13F

$$
INZ028>050-261800-
CENTRAL INDIANA

CITY           SKY/WX    TMP DP  RH WIND       PRES   REMARKS
LAFAYETTE      MOSUNNY   46  38  73 SW8       30.11F
KOKOMO*        SUNNY     45  37  76 SW16      30.12F
MUNCIE*        SUNNY     44  36  73 SW13G24   30.14F
INDIANAPOLIS   PTSUNNY   46  37  71 SW15      30.15F

$$
MIZ043>046-050>051-056>058-064>065-071>073-077>080-261800-
SOUTHWEST LOWER MICHIGAN

CITY           SKY/WX    TMP DP  RH WIND       PRES   REMARKS
BATTLE CREEK   SUNNY     44  34  67 SW14      30.06F
BENTON HARBOR  SUNNY     45  36  70 S7        30.05F
COLDWATER*     SUNNY     43  35  73 SW13      30.08F
HILLSDALE*     SUNNY     42  37  81 SW9       30.09F
HOLLAND        MOSUNNY   45  35  68 SW20      30.05F
GRAND RAPIDS   MOSUNNY   43  35  73 SW14G21   30.05F
KALAMAZOO      SUNNY     44  35  70 SW9       30.07F
STURGIS*       SUNNY     43  36  75 SW12      30.07F
THREE RIVERS*  FAIR      44  36  73 SW10G16   30.08F

$$
OHZ001>008-015>018-024>025-261800-
NORTHWEST OHIO

CITY           SKY/WX    TMP DP  RH WIND       PRES   REMARKS
WAUSEON*       FAIR      43  37  81 SW14      30.12F
DEFIANCE       SUNNY     43  35  73 SW12      30.13F
FINDLAY        SUNNY     45  36  70 S15       30.15F
TOLEDO EXPRESS SUNNY     43  34  70 SW13      30.13F
TOLEDO METCALF SUNNY     45  35  68 SW17      30.15F
LIMA           SUNNY     45  35  68 SW16      30.16F

$$
AND FOR LAKE MICHIGAN COASTAL AND OPEN LAKE BUOY OBSERVATIONS

STATION/POSITION TEMP    WIND        PRES    VSBY  WAVE
                 AIR SEA DIR/SP/G                  HT/PER
                 (F)     (DEG/KT/KT) (MB)    (MI)  (FT/S)
CALUMET HARBOR    44     200/ 11/ 15 1016.1F
MICHIGAN CITY     44     180/ 16/ 20   N/A
SAINT JOSEPH      43     190/ 11/ 15 1017.6F
MICHIGAN CITY CG     37                N/A       6   1

$$
&&


USA.gov is the U.S. government's official web portal to all federal, state and local government web resources and services.